Location: Cinisello
(45.5500°N, 9.2167°E)
Time: 18:01:44
(UTC+00:00)

Daily predictions for brighter satellites

Satellite Brightness Start Highest point End
(mag) Time Altitude Azimuth Time Altitude Azimuth Time Altitude Azimuth
Cosmos 2322 4.3 16:36:23 10° NNW 16:42:00 64° WSW 16:47:35 10° SSE
Cosmos 2184 Rocket 4.0 16:37:12 10° S 16:43:21 75° E 16:49:31 10° NNE
Envisat 3.2 16:38:54 10° SE 16:43:47 50° ENE 16:48:41 10° N
Starlink A 3.3 16:43:27 10° WSW 16:46:25 53° NNW 16:49:24 10° NE
Cosmos 2297 Rocket 3.4 16:43:00 10° SSE 16:47:12 22° E 16:51:25 10° NE
Starlink R 3.3 16:45:02 10° WSW 16:48:00 52° NNW 16:50:59 10° NE
Cosmos 1980 4.1 16:43:06 10° NNW 16:48:27 40° NE 16:53:47 10° SE
Starlink K 3.4 16:46:34 10° WSW 16:49:33 50° NNW 16:52:32 10° NE
PSLV R/B 4.0 16:45:35 10° NNE 16:49:41 88° W 16:53:45 10° SSW
Starlink AR 3.3 16:48:16 10° W 16:50:42 39° NNW 16:53:10 10° NE
Cosmos 2360 Rocket 4.4 16:46:04 10° NW 16:51:00 32° WSW 16:55:54 10° SSW
Starlink M 3.4 16:48:07 10° WSW 16:51:04 49° NNW 16:54:03 10° NE
Cosmos 2154 Rocket 4.1 16:45:30 10° SSE 16:51:36 55° E 16:57:41 10° NNE
Cosmos 1048 Rocket 3.9 16:46:39 10° NNW 16:51:50 81° ENE 16:56:56 10° SSE
YAOGAN 1 3.8 16:48:36 10° ESE 16:51:52 21° ENE 16:55:08 10° NNE
Cosmos 1269 Rocket 4.5 16:46:59 10° N 16:51:55 38° ENE 16:56:49 10° SE
Cosmos 372 Rocket 4.2 16:46:58 10° SSW 16:52:05 76° WNW 16:57:17 10° NNE
H-2A R/B 3.0 16:50:06 10° S 16:53:56 76° W 16:57:50 10° NNW
SMAP 3.2 16:49:28 10° SSE 16:54:07 82° WSW 16:58:49 10° NNW
Cosmos-2242 4.3 16:51:18 10° NNE 16:54:31 20° ENE 16:57:42 10° ESE
Cosmos 1461 3.6 16:51:09 10° NW 16:55:27 64° WSW 16:59:55 10° SSE
Cosmos 2219 Rocket 2.4 16:52:34 10° NNW 16:58:16 79° WSW 17:03:55 10° SSE
Cosmos 2227 Rocket 3.3 16:54:56 10° SSE 16:59:26 25° ESE 17:03:56 10° NE
CZ-4B R/B 4.2 16:58:04 10° NW 16:59:31 13° WNW 17:00:58 10° W
Cosmos 1939 Rocket 4.3 16:57:59 10° ESE 17:00:34 17° ENE 17:03:12 10° NNE
Meteor 2-1 Rocket 4.3 16:57:23 10° N 17:02:45 51° ENE 17:08:07 10° SSE
COSMOS 2428 3.1 16:59:03 10° NNW 17:04:47 73° WSW 17:10:29 10° SSE
ERBS 3.4 17:02:13 10° SSW 17:05:08 28° SE 17:07:26 14° ENE
Cosmos 1610 Rocket 4.4 16:59:52 10° S 17:05:57 76° E 17:12:07 10° NNE
Cosmos 1602 Rocket 3.5 17:05:12 10° S 17:09:35 76° E 17:13:57 10° NNE
Cosmos 2074 Rocket 4.5 17:05:48 10° SSW 17:12:03 66° W 17:18:20 10° N
USA 267 3.9 17:09:38 10° NE 17:15:53 49° NNW 17:22:08 10° W
COSMO-SKYMED 1 2.7 17:16:11 10° NNE 17:20:28 54° E 17:24:43 10° S
ATLAS CENTAUR R/B 3.2 17:19:16 10° N 17:21:15 13° NNE 17:21:48 13° NE
Cosmos 494 Rocket 3.9 17:19:24 10° NNW 17:24:32 87° ENE 17:29:39 10° SSE
Cosmos 962 Rocket 4.4 17:19:38 10° S 17:25:39 64° E 17:31:44 10° NNE
Meteor 2-10 Rocket 4.0 17:21:04 10° N 17:26:01 36° ENE 17:30:46 10° SE
Cosmos 1758 Rocket 3.7 17:22:29 10° SSE 17:26:38 49° E 17:30:49 10° NNE
CZ-4C R/B 3.2 17:19:55 10° NW 17:27:11 76° SW 17:35:26 10° SSE
Ariane Rocket 4.1 17:23:32 10° ESE 17:27:26 23° ENE 17:31:21 10° N
CZ-4 R/B 1.4 17:25:42 10° SSE 17:29:39 60° ENE 17:33:44 10° N
Starlink AQ 4.2 17:28:36 10° W 17:31:13 28° NNW 17:32:34 19° NNE
NOSS 0 Rocket 4.1 17:25:12 10° NNW 17:31:27 78° WSW 17:37:36 10° SSE
Starlink AS 4.2 17:29:19 10° W 17:31:54 27° NNW 17:33:12 19° NNE
Starlink BA 4.2 17:29:36 10° W 17:32:11 27° NNW 17:33:28 19° NNE
Starlink AU 4.2 17:29:50 10° W 17:32:25 27° NNW 17:33:41 20° NNE
BREEZE-M DEB (TANK) 2.6 17:30:15 10° SW 17:32:29 41° SSE 17:33:13 30° ESE
Starlink AT 4.2 17:30:04 10° W 17:32:38 27° NNW 17:33:54 20° NNE
Starlink BB 4.2 17:30:17 10° W 17:32:51 27° NNW 17:34:07 20° NNE
Starlink BC 4.2 17:30:30 10° WNW 17:33:04 27° NNW 17:34:19 20° NNE
Starlink BK 4.2 17:30:44 10° WNW 17:33:19 27° NNW 17:34:32 20° NNE
Nadezhda 3 Rocket 4.3 17:27:11 10° NNW 17:33:26 72° W 17:39:44 10° S
Starlink AY 4.2 17:30:57 10° WNW 17:33:31 27° NNW 17:34:45 20° NNE
Starlink AW 4.2 17:31:11 10° WNW 17:33:46 27° NNW 17:34:58 20° NNE
Okean-O 3.1 17:29:30 10° S 17:33:54 65° WSW 17:38:19 10° NNW
Starlink BJ 4.3 17:31:26 10° WNW 17:34:00 27° NNW 17:35:12 20° NNE
Starlink AV 4.3 17:31:38 10° WNW 17:34:12 27° NNW 17:35:23 20° NNE
Starlink BD 4.3 17:31:53 10° WNW 17:34:26 26° NNW 17:35:37 20° NNE
CSL-04 Debris 4.2 17:29:24 10° SSE 17:34:39 56° ENE 17:39:56 10° N
Starlink BE 4.3 17:32:05 10° WNW 17:34:39 27° NNW 17:35:51 20° NNE
Starlink BM 4.3 17:32:20 10° WNW 17:34:53 26° NNW 17:36:03 20° NNE
Starlink AX 4.3 17:32:33 10° WNW 17:35:06 26° NNW 17:36:16 20° NNE
Starlink BH 4.3 17:32:47 10° WNW 17:35:20 26° NNW 17:36:29 20° NNE
Starlink AZ 4.3 17:33:00 10° WNW 17:35:34 26° NNW 17:36:42 20° NNE
Starlink BG 4.3 17:33:14 10° WNW 17:35:47 26° NNW 17:36:55 20° NNE
Starlink BF 4.3 17:33:28 10° WNW 17:36:02 26° NNW 17:37:08 20° NNE
Starlink BL 4.3 17:33:40 10° WNW 17:36:14 26° NNW 17:37:22 20° NNE
Starlink AH 4.3 17:33:56 10° WNW 17:36:28 26° NNW 17:37:34 20° NNE
Starlink AC 4.3 17:34:10 10° WNW 17:36:43 26° NNW 17:37:48 20° NNE
Starlink X 4.3 17:34:24 10° WNW 17:36:56 26° NNW 17:38:00 21° NNE
Starlink AE 4.3 17:34:33 10° WNW 17:37:08 26° NNW 17:38:14 21° NNE
NOSS 2-1 (C) 4.4 17:31:59 10° NNW 17:37:11 60° NE 17:44:26 10° SE
Starlink Z 4.3 17:34:50 10° WNW 17:37:23 26° NNW 17:38:26 21° NNE
Starlink AK 4.3 17:35:04 10° WNW 17:37:36 26° NNW 17:38:39 21° NNE
Starlink AL 4.3 17:35:18 10° WNW 17:37:50 26° NNW 17:38:53 21° NNE
Starlink AD 4.3 17:35:31 10° WNW 17:38:03 26° NNW 17:39:04 21° NNE
CZ-4 R/B 4.3 17:34:05 10° SSE 17:38:13 85° ENE 17:42:22 10° NNW
Starlink Y 4.3 17:35:57 10° WNW 17:38:30 26° NNW 17:39:30 21° NNE
Starlink AG 4.3 17:36:13 10° WNW 17:38:44 25° NNW 17:39:45 21° NNE
Starlink W 4.3 17:36:23 10° WNW 17:38:57 26° NNW 17:39:58 21° NNE
Starlink AJ 4.3 17:36:39 10° WNW 17:39:11 25° NNW 17:40:10 21° NNE
Starlink AM 4.3 17:37:04 10° WNW 17:39:35 25° NNW 17:40:33 21° NNE
Starlink AP 4.3 17:37:20 10° WNW 17:39:51 25° NNW 17:40:49 21° NNE
Starlink AA 4.3 17:37:34 10° WNW 17:40:05 25° NNW 17:41:01 21° NNE
Starlink AF 4.3 17:37:43 10° WNW 17:40:13 25° NNW 17:41:10 21° NNE
Starlink AB 4.3 17:38:02 10° WNW 17:40:33 25° NNW 17:41:28 21° NNE
Starlink AN 4.3 17:38:15 10° WNW 17:40:46 25° NNW 17:41:41 21° NNE
NOSS 2-1 (D) 4.4 17:35:47 10° NNW 17:41:01 64° NE 17:48:21 10° SE
H-2A R/B 3.7 17:43:38 15° NE 17:43:38 15° NE 17:45:07 10° NNE
Cosmos 1727 Rocket 4.4 17:38:21 10° N 17:44:04 37° ENE 17:49:43 10° SE
NOAA 15 4.5 17:39:43 10° SSE 17:44:57 75° ENE 17:50:15 10° N
CZ-2D R/B 3.3 17:45:08 10° SSE 17:48:51 54° ENE 17:52:38 10° N
ATLAS CENTAUR R/B 4.5 17:43:36 10° W 17:49:37 51° NNW 18:01:48 17° ENE
Cosmos 2251 Rocket 4.0 17:45:16 10° N 17:50:09 36° ENE 17:52:20 26° ESE
Cosmos 2237 Rocket 2.3 17:44:45 10° NNW 17:50:24 79° WSW 17:56:00 10° SSE
Cosmos 1825 Rocket 3.4 17:47:31 10° S 17:51:53 82° E 17:56:14 10° N
Starlink T 4.4 17:49:55 10° WNW 17:52:24 23° NNW 17:52:52 23° N
Cosmos 2333 Rocket 4.4 17:48:25 10° NW 17:53:11 28° WSW 17:57:54 10° SSW
Starlink N 4.4 17:51:16 10° WNW 17:53:46 23° NNW 17:54:10 23° N
SL-8 Rocket 3.9 17:48:59 10° S 17:55:15 72° E 18:01:32 10° NNE
Starlink Q 4.4 17:52:56 10° WNW 17:55:25 23° NNW 17:55:45 23° N
USA 32 4.2 17:51:08 10° S 17:56:21 75° W 18:01:37 10° N
Cosmos 2341 Rocket 4.1 17:50:19 10° S 17:56:43 84° W 18:03:07 10° N
Starlink P 4.5 17:54:25 10° WNW 17:56:53 23° NNW 17:57:09 23° N
Starlink U 4.5 17:55:52 10° WNW 17:58:20 23° NNW 17:58:33 22° N
Cosmos 724 4.3 17:53:49 10° SW 17:59:48 82° NW 18:04:06 19° NNE
YAOGAN 6 4.5 17:56:56 10° SSW 18:00:18 33° W 18:03:41 10° NNW
CSL-04 Rocket 3.7 17:56:19 10° SSE 18:01:49 89° WSW 18:07:24 10° NNW
DELTA 2 R/B (1) 4.2 17:57:52 10° WSW 18:03:10 45° S 18:05:37 28° ESE
Cosmos 1455 2.0 18:02:23 10° N 18:06:13 83° E 18:09:59 10° S
SL-8 R/B 4.0 18:03:02 10° SW 18:07:41 50° SSE 18:08:43 42° ESE
Meteor 1-21 Rocket 4.5 18:03:40 10° SSW 18:09:14 70° WNW 18:14:57 10° N
ATLAS 5 CENTAUR R/B 4.1 18:07:08 10° NW 18:09:39 14° NNW 18:12:20 10° NNE
Cosmos 1328 3.7 18:06:43 10° S 18:10:42 70° E 18:11:36 50° NNE
SL-16 R/B 2.1 18:06:20 10° NNW 18:11:58 62° ENE 18:15:05 27° SE
ISS -3.0 18:11:24 10° SW 18:14:04 44° S 18:14:04 44° S
Cosmos 44 3.1 18:10:23 10° SSW 18:14:54 58° ESE 18:15:15 56° E
USA 116 3.6 18:15:28 50° NNW 18:16:01 60° WNW 18:19:04 10° SSW
Shenzhou-11 Module 4.2 18:14:34 10° SW 18:15:33 17° SSW 18:15:33 17° SSW
Cosmos 2219 3.8 18:11:35 10° SW 18:17:05 55° WNW 18:21:51 14° NNE
MOS 1 4.5 18:17:32 42° E 18:18:31 46° ENE 18:23:57 10° N
Cosmos 2082 3.6 18:14:27 10° SSW 18:20:00 66° ESE 18:21:51 41° NE
SL-08 R/B 4.4 18:21:23 10° S 18:27:36 70° E 18:33:58 10° NNE
YAOGAN 1 3.8 18:23:36 10° S 18:27:42 41° W 18:31:49 10° NNW
Cosmos 2218 Rocket 4.1 18:22:00 10° SSW 18:28:20 79° W 18:34:46 10° N
Cosmos 2297 Rocket 2.6 18:25:10 10° SW 18:30:46 61° WNW 18:34:25 22° NNE
ATLAS 5 CENTAUR R/B 4.0 18:27:04 10° NNW 18:31:38 43° NE 18:33:50 38° ENE
Cosmos-2242 4.4 18:28:12 10° NNW 18:32:15 39° W 18:36:15 10° SSW
ADEOS Rocket 3.2 18:27:36 10° NNE 18:34:10 76° ESE 18:41:25 10° S
Cosmos 864 Rocket 4.5 18:28:08 10° SSW 18:34:15 79° W 18:40:25 10° N
Cosmos 1939 Rocket 4.0 18:31:28 10° S 18:35:11 42° W 18:38:58 10° NNW
ERBS 4.2 18:38:18 10° W 18:40:26 28° WNW 18:40:26 28° WNW
Cosmos 2227 Rocket 2.8 18:37:34 10° SW 18:43:07 54° WNW 18:46:12 26° N
USA 267 4.2 18:56:47 30° NNE 18:58:04 33° N 19:03:43 10° WNW
ATLAS CENTAUR R/B 3.7 18:56:59 10° NNW 18:58:01 17° NNW 18:58:01 17° NNW
Ariane Rocket 3.7 19:01:56 15° S 19:06:03 52° W 19:11:02 10° NNW
Atlas Centaur 2 4.3 19:16:14 10° SSW 19:17:49 15° SSW 19:17:49 15° SSW
H-2A R/B 4.0 19:24:15 20° NNW 19:24:15 20° NNW 19:25:46 10° NNW
SL-16 R/B 4.3 19:51:24 10° NW 19:55:35 22° W 19:57:05 19° WSW
